Location: Unspecified
(43.8044°N, 11.0278°E)
Time: 14:05:35
(UTC+02:00)

CZ-3 Stage 3 - Visible Passes

Search period start: 24 August 2016 00:00
Search period end: 03 September 2016 00:00
Orbit: 480 x 34724 km, 30.5° (Epoch: 21 August)

Date Brightness Start Highest point End Pass type
(mag) Time Alt. Az. Time Alt. Az. Time Alt. Az.
26 Aug 5.0 21:34:57 10° W 22:20:54 34° SW 22:25:45 23° S visible
29 Aug 5.1 21:25:28 10° W 22:12:14 34° SW 22:17:26 21° S visible
01 Sep 5.1 21:15:57 10° W 22:03:32 33° SW 22:09:08 19° S visible
